GFSFLT1_con_3kmhel_168.txt.gz
Helicity
344 336 305 266 207 182 132 126 130 97 68 65 71 72 64 60 57 57 41 39 38 35 44 50 49 56 60 62 58 60 60 59
339 312 325 238 175 139 137 115 120 132 140 120 113 102 84 85 73 60 42 29 25 28 35 48 51 53 61 69 52 52 62 60
410 385 254 220 146 165 123 133 151 177 162 124 100 92 85 52 91 45 66 37 41 47 40 39 47 43 62 71 62 52 54 64
571 448 235 172 158 165 165 161 166 174 174 147 136 94 93 135 84 67 57 42 37 37 43 44 45 49 57 64 66 68 39 73
606 495 241 142 223 202 213 187 164 155 197 172 160 163 149 105 85 74 39 57 34 36 46 56 48 42 45 55 64 69 68 55
600 457 280 198 252 172 193 171 178 165 172 192 186 165 127 92 81 75 60 67 61 63 72 56 53 57 61 70 76 79 77 71
355 347 308 350 275 170 174 167 170 169 185 180 169 146 125 112 106 91 86 53 57 77 93 60 65 71 74 74 75 75 74 72
397 431 428 323 149 169 158 170 168 158 167 161 150 145 132 130 114 95 72 57 66 88 69 64 48 56 61 66 69 67 70 69
472 434 361 256 226 137 134 136 156 155 170 163 136 124 110 98 98 73 69 94 88 82 82 75 76 71 66 57 50 54 55 63
362 320 167 291 157 176 183 153 156 152 140 118 120 114 111 102 93 85 99 105 102 104 91 90 85 78 69 67 55 54 49 48
182 157 247 209 194 158 145 172 174 139 132 123 124 116 103 94 78 106 100 96 89 86 83 80 73 67 65 66 58 51 45 42
171 277 228 202 192 140 155 170 167 146 136 135 131 117 100 102 121 135 111 87 93 96 83 75 74 75 70 65 59 54 69 52
200 199 174 212 208 209 215 164 158 152 159 156 147 113 99 118 117 107 94 91 88 90 91 80 77 73 67 71 76 65 48 48
250 238 250 271 306 255 187 184 154 144 145 138 126 107 96 97 108 83 73 76 82 80 81 85 82 78 74 92 82 48 47 40
421 503 495 419 319 233 195 164 147 140 138 135 123 111 96 101 88 67 66 76 78 77 83 82 75 76 84 79 45 47 49 50
482 464 482 370 282 244 224 181 157 124 129 133 126 114 108 96 82 67 81 79 80 88 91 91 91 76 102 64 37 31 40 44
445 381 297 258 231 208 197 162 113 143 128 118 116 113 101 94 89 101 102 87 95 91 89 90 83 83 128 107 80 33 36 30
620 386 247 236 223 185 155 113 126 104 96 118 126 99 91 94 98 95 93 89 86 87 94 95 96 91 133 117 103 38 35 22
594 343 235 226 192 164 108 118 101 113 124 118 100 86 85 88 82 78 77 85 91 90 107 106 105 101 126 115 104 49 45 46

GFSFLT1_con_3kmhel_171.txt.gz
Helicity
527 609 599 507 346 250 179 149 161 147 151 142 122 121 103 86 63 45 49 32 42 32 28 22 -8 -6 15 26 18 29 21 10
714 713 670 572 355 205 161 162 204 216 194 181 175 127 86 91 83 87 61 31 31 20 5 2 -16 -24 -2 19 6 23 24 24
793 815 797 562 327 198 167 156 218 219 176 150 114 86 114 125 105 95 59 47 20 8 1 -2 0 -22 -5 13 29 6 29 36
777 838 844 628 416 253 205 196 184 206 244 163 171 174 194 167 130 92 87 64 25 15 22 0 -7 -20 -17 6 9 19 16 47
823 752 863 705 454 382 302 235 188 212 227 224 213 199 184 169 115 95 104 81 74 58 26 -5 -9 -7 9 26 36 36 33 40
852 767 772 635 517 379 262 267 218 197 200 188 188 196 182 165 143 150 112 96 81 67 22 8 1 2 45 59 60 63 51 51
820 703 702 599 498 350 259 252 210 197 176 183 177 188 182 170 150 120 111 80 60 68 59 44 40 40 66 63 63 65 69 63
678 703 677 564 404 276 203 222 189 165 163 167 162 181 171 127 108 92 101 76 66 70 62 42 22 46 73 67 63 60 58 61
518 517 501 410 282 170 209 212 177 171 153 145 141 143 126 100 99 79 72 84 93 85 67 53 60 95 85 83 71 70 76 75
462 476 372 276 227 190 199 222 212 169 149 147 138 122 122 107 108 96 85 94 104 118 92 82 98 97 93 91 75 77 75 77
282 299 249 258 268 236 266 255 209 168 159 148 130 123 128 129 115 106 98 102 107 105 99 96 93 91 83 77 71 73 77 57
232 266 288 308 279 222 207 228 211 177 155 153 138 125 124 117 116 105 100 89 96 96 100 95 88 86 73 65 79 81 64 57
236 305 366 293 250 225 235 239 208 157 150 135 116 110 126 127 106 89 75 83 90 90 95 90 86 81 83 95 79 49 36 57
282 347 372 337 302 252 230 215 186 150 141 130 120 116 137 106 79 84 82 94 86 92 94 99 96 96 105 86 58 31 52 56
353 528 495 431 383 318 272 219 182 163 161 128 142 147 117 87 89 100 87 81 83 91 96 95 101 93 119 89 45 46 75 65
565 695 718 546 427 354 261 206 188 163 159 175 150 121 101 101 113 107 110 96 93 88 100 109 85 112 124 88 51 48 58 61
725 787 664 446 336 279 239 215 188 173 158 161 143 122 116 114 104 106 101 100 99 95 104 89 101 117 153 143 120 64 75 69
704 683 531 357 265 229 192 190 162 137 169 149 116 109 108 93 89 98 110 102 92 103 101 111 125 146 175 145 132 83 70 75
561 627 509 502 260 201 206 165 147 173 157 117 89 91 94 97 101 98 114 94 88 91 99 119 125 123 139 124 116 83 87 96

GFSFLT1_con_3kmhel_174.txt.gz
Helicity
593 594 553 581 582 447 277 249 252 286 282 212 185 151 112 103 65 54 40 22 32 20 14 10 -16 -35 -21 -13 -28 -31 -53 -36
596 664 688 716 628 486 322 275 295 304 269 226 198 164 144 134 105 70 53 53 55 37 4 -2 -26 -53 -57 -38 -39 -25 -50 -32
665 711 758 740 630 485 360 312 318 322 296 253 222 200 192 121 116 96 84 80 77 58 22 -1 -10 -37 -36 -38 -20 -17 -51 -32
730 767 805 747 644 520 396 300 322 320 308 287 268 239 219 182 154 132 132 109 73 34 6 -20 -29 -49 -46 -53 -36 -37 -36 -15
794 826 882 801 681 617 475 342 321 324 329 352 342 300 262 192 149 149 145 115 78 32 -2 -39 -54 -65 -44 -30 -11 -15 -20 6
871 924 975 829 731 592 454 347 305 299 340 337 320 307 246 203 199 206 169 126 121 71 32 9 -4 -15 15 56 62 58 39 21
1067 1152 1031 808 664 547 412 346 285 287 319 310 289 257 219 218 200 182 159 112 84 71 49 31 22 24 42 53 65 76 69 70
1116 1286 1052 766 543 429 342 275 250 253 241 249 239 212 192 173 148 125 117 102 74 70 43 38 27 35 59 55 50 62 70 68
1162 1150 887 555 420 285 221 211 201 197 196 197 196 180 158 145 120 95 94 91 81 95 85 59 54 75 68 68 65 75 86 86
744 622 425 336 246 155 187 168 188 206 193 192 191 166 156 126 110 90 80 97 114 99 89 76 80 86 82 66 55 77 71 68
398 329 188 188 214 212 223 213 181 163 177 172 166 162 126 101 92 88 85 99 97 95 107 96 82 78 73 63 59 74 63 59
159 185 174 205 215 191 220 222 191 193 182 157 145 128 102 89 86 85 104 90 73 95 95 86 73 91 77 81 89 74 61 74
238 245 273 266 270 263 222 191 180 172 159 156 144 129 112 90 91 131 107 100 104 86 84 93 104 93 100 97 65 45 62 74
200 216 249 253 247 231 212 205 213 191 179 181 170 139 108 113 143 130 82 73 98 87 77 97 105 101 102 75 44 44 74 76
207 296 347 367 335 285 252 219 207 198 209 189 157 125 114 130 132 127 115 87 78 78 102 102 70 106 99 66 51 62 87 95
217 321 473 482 457 302 233 220 215 233 222 179 138 120 131 139 133 130 121 133 113 95 96 88 87 128 114 83 54 67 77 89
468 624 622 629 487 294 226 219 218 230 211 184 141 147 146 128 136 160 165 146 121 103 97 95 120 117 124 95 79 71 83 104
639 789 763 626 441 346 315 215 220 249 206 163 164 145 140 136 152 165 141 110 98 91 83 81 84 86 102 96 90 76 94 121
631 782 781 617 428 462 291 203 299 258 193 158 152 142 130 143 153 139 121 99 79 65 75 66 55 78 94 88 103 89 105 114

GFSFLT1_con_3kmhel_180.txt.gz
Helicity
219 299 349 400 417 402 335 301 316 326 352 388 394 334 275 234 212 177 151 129 115 102 101 94 66 43 35 5 -8 -31 -14 29
235 350 386 444 450 448 395 395 346 386 405 426 398 359 316 300 243 202 187 160 140 116 98 87 66 48 26 16 -25 -0 39 53
275 368 420 432 500 502 453 398 382 351 344 361 357 368 367 323 273 263 217 191 165 152 118 105 85 57 65 44 9 -49 -41 20
316 373 425 474 573 590 507 448 375 354 390 411 479 450 412 371 321 277 237 190 154 129 112 87 75 46 30 21 9 5 -26 -19
332 401 434 486 604 703 619 516 436 401 393 419 384 360 352 307 305 270 234 184 153 126 105 77 55 29 39 22 29 16 -6 -1
277 357 485 590 715 749 715 621 534 438 414 406 401 406 370 348 322 270 218 180 143 112 81 59 37 16 19 31 37 45 15 5
235 374 537 670 786 811 773 695 597 454 414 391 381 368 350 367 301 232 180 150 123 98 66 39 21 23 30 42 57 94 75 64
330 448 547 707 870 905 816 724 627 455 413 392 355 331 304 321 242 177 148 136 120 93 75 64 61 71 77 84 91 96 83 78
244 375 532 726 899 889 805 698 563 439 406 392 344 318 288 298 210 178 154 132 102 90 83 85 89 101 100 102 92 93 94 87
146 303 430 613 758 718 594 514 425 346 316 310 307 271 265 260 203 177 140 113 111 106 107 131 133 131 125 101 103 112 97 91
187 194 312 472 489 500 438 348 303 312 293 283 263 240 228 208 190 193 188 167 122 117 132 131 141 146 135 111 101 97 100 86
323 332 298 323 373 375 310 292 269 269 277 222 208 194 197 193 181 191 158 122 123 140 145 143 133 137 107 100 93 98 91 79
267 255 269 216 243 245 280 220 254 243 153 174 176 174 186 209 186 151 143 143 140 135 126 115 111 101 86 101 108 81 74 74
158 136 162 215 252 188 176 187 207 227 198 207 203 191 186 194 175 166 164 155 151 149 129 115 110 74 77 78 77 52 46 40
114 133 91 186 163 105 153 201 176 186 202 233 199 179 179 179 182 179 176 165 166 149 120 108 76 53 63 69 67 43 18 18
46 -0 3 100 108 245 273 248 212 215 246 243 211 180 194 210 217 219 199 175 156 140 119 109 93 82 56 21 42 13 24 34
79 119 160 197 206 303 294 303 290 287 289 267 216 229 229 237 235 228 195 160 142 145 143 125 101 61 67 68 41 22 33 50
209 279 324 367 423 480 483 425 395 368 355 348 251 210 212 240 209 173 165 163 152 144 111 91 79 42 78 66 63 21 21 27
100 323 432 470 561 615 580 522 513 503 474 422 339 183 166 188 192 182 159 126 111 97 98 88 73 73 78 60 51 17 16 16